EHI
0 0 0 1 2 2 3 2 1 0 0 0 0 0 0 1 1 1 0 0 0 0 0 0 0 0 0 0 0 0 0 0 0 0 0 0 0 0 0 0 0 0 0
0 0 0 0 1 1 2 1 0 0 0 0 0 0 0 0 0 0 0 0 0 0 0 0 0 0 0 0 0 0 0 0 0 0 0 0 0 0 0 0 0 0 0
0 0 0 0 0 0 0 0 0 0 0 0 0 0 0 0 0 0 0 0 0 0 0 0 0 0 0 0 0 0 0 0 0 0 0 0 0 0 0 0 0 0 0
0 0 0 0 0 0 0 0 0 0 0 0 0 0 0 0 0 0 0 0 0 0 0 0 0 0 0 0 0 0 0 0 0 0 0 0 0 0 0 0 0 0 0
0 0 0 0 0 0 0 0 0 0 0 0 0 0 0 0 0 0 0 0 0 0 0 0 0 0 0 0 0 0 0 0 0 0 0 0 0 0 0 0 0 0 0
0 0 0 0 0 0 0 0 0 0 0 0 0 0 0 0 0 0 0 0 0 0 0 0 0 0 0 0 0 0 0 0 0 0 0 0 0 0 0 0 0 0 0
0 0 0 0 0 0 0 0 0 0 0 0 0 0 0 0 0 0 0 0 0 0 0 0 0 0 0 0 0 0 0 0 0 0 0 0 0 0 0 0 0 0 0
0 0 0 0 0 0 0 0 0 0 0 0 0 0 0 0 0 0 0 0 0 0 0 0 0 0 0 0 0 0 0 0 0 0 0 0 0 0 0 0 0 0 0
0 0 0 0 0 0 0 0 0 0 0 0 0 0 0 0 0 0 0 0 0 0 0 0 0 0 0 0 0 0 0 0 0 0 0 0 0 0 0 0 0 0 0
0 0 0 0 0 0 0 0 0 0 0 0 0 0 0 0 0 0 0 0 0 0 0 0 0 0 0 0 0 0 0 0 0 0 0 0 0 0 0 0 0 0 0
0 0 0 0 0 0 0 0 0 0 0 0 0 0 0 0 0 0 0 0 0 0 0 0 0 0 0 0 0 0 0 0 0 0 0 0 0 0 0 0 0 0 0
0 0 0 0 0 0 0 0 0 0 0 0 0 0 0 0 0 0 0 0 0 0 0 0 0 0 0 0 0 0 0 0 0 0 0 0 0 0 0 0 0 0 0
0 0 0 0 0 0 0 0 0 0 0 0 0 0 0 0 0 0 0 0 0 0 0 0 0 0 0 0 0 0 0 0 0 0 0 0 0 0 0 0 0 0 0
0 0 0 0 0 0 0 0 0 0 0 0 0 0 0 0 0 0 0 0 0 0 0 0 0 0 0 0 0 0 0 0 0 0 0 0 0 0 0 0 0 0 0
0 0 0 0 0 0 0 0 0 0 0 0 0 0 0 0 0 0 0 0 0 0 0 0 0 0 0 0 0 0 0 0 0 0 0 0 0 0 0 0 0 0 0
0 0 0 0 0 0 0 0 0 0 0 0 0 0 0 0 0 0 0 0 0 0 0 0 0 0 0 0 0 0 0 0 0 0 0 0 0 0 0 0 0 0 0
0 0 0 0 0 0 0 0 0 0 0 0 0 0 0 0 0 0 0 0 0 0 0 0 0 0 0 0 0 0 0 0 0 0 0 0 0 0 0 0 0 0 0
0 0 0 0 0 0 0 0 0 0 0 0 0 0 0 0 0 0 0 0 0 0 0 0 0 0 0 0 0 0 0 0 0 0 0 0 0 0 0 0 0 0 0
0 0 0 0 0 0 0 0 0 0 0 0 0 0 0 0 0 0 0 0 0 0 0 0 0 0 0 0 0 0 0 0 0 0 0 0 0 0 0 0 0 0 0
0 0 0 0 0 0 0 0 0 0 0 0 0 0 0 0 0 0 0 0 0 0 0 0 0 0 0 0 0 0 0 0 0 0 0 0 0 0 0 0 0 0 0
0 0 0 0 0 0 0 0 0 0 0 0 0 0 0 0 0 0 0 0 0 0 0 0 0 0 0 0 0 0 0 0 0 0 0 0 0 0 0 0 0 0 0
0 0 0 0 0 0 0 0 0 0 0 0 0 0 0 0 0 0 0 0 0 0 0 0 0 0 0 0 0 0 0 0 0 0 0 0 0 0 0 0 0 0 0
0 0 0 0 0 0 0 0 0 0 0 0 0 0 0 0 0 0 0 0 0 0 0 0 0 0 0 0 0 0 0 0 0 0 0 0 0 0 0 0 0 0 0
0 0 0 0 0 0 0 0 0 0 0 0 0 0 0 0 0 0 0 0 0 0 0 0 0 0 0 0 0 0 0 0 0 0 0 0 0 0 0 0 0 0 0
0 0 0 0 0 0 0 0 0 0 0 0 0 0 0 0 0 0 0 0 0 0 0 0 0 0 0 0 0 0 0 0 0 0 0 0 0 0 0 0 0 0 0
0 0 0 0 0 0 0 0 0 0 0 0 0 0 0 0 0 0 0 0 0 0 0 0 0 0 0 0 0 0 0 0 0 0 0 0 0 0 0 0 0 0 0
Wind_Speed
3 2 2 2 3 3 3 4 4 5 5 5 4 5 4 3 3 3 2 6 6 6 6 6 6 5 5 5 5 5 6 6 6 6 6 6 6 6 6 6 6 6 6
3 3 3 3 3 3 3 4 5 5 4 4 4 4 4 4 3 3 3 4 7 7 6 6 6 6 5 5 5 5 5 5 6 6 5 5 5 5 5 6 6 6 6
4 3 3 3 3 3 5 4 5 4 4 4 5 4 4 4 4 3 3 3 4 7 7 6 6 6 5 5 5 5 5 5 5 5 5 4 4 4 4 4 5 5 5
5 4 3 3 3 3 4 5 4 4 4 4 4 3 3 3 4 3 3 3 3 3 6 8 7 6 5 5 4 5 5 5 4 4 4 4 4 3 3 4 4 4 4
5 4 3 3 4 3 3 5 4 4 4 4 4 4 3 3 3 4 4 4 3 3 3 5 8 7 6 4 4 4 4 4 4 3 3 3 3 3 2 3 3 4 4
5 4 4 5 4 4 3 4 5 4 4 4 5 4 4 3 3 3 3 3 3 4 3 4 3 5 7 6 4 4 4 3 3 2 2 3 2 3 3 3 4 4 4
6 5 4 5 5 4 4 6 6 6 4 3 4 4 3 3 3 3 2 3 3 3 3 3 2 2 3 5 5 4 4 4 4 3 3 3 3 3 4 4 5 5 4
6 5 5 5 5 4 5 6 6 4 3 2 3 4 2 2 2 2 2 2 2 2 3 3 2 2 2 2 3 5 4 4 4 4 4 4 4 4 5 6 6 6 5
6 6 6 6 6 5 5 5 6 6 5 2 1 3 4 2 0 2 2 2 2 2 2 2 2 2 2 2 2 4 5 5 4 4 5 5 5 6 6 6 7 7 6
6 7 7 6 6 5 6 5 4 4 6 4 1 2 2 3 3 0 1 1 2 2 2 2 2 2 2 2 2 5 6 6 5 5 5 6 6 6 7 7 7 7 7
6 6 7 6 6 5 5 6 5 4 3 4 3 2 2 2 2 2 1 1 1 1 1 1 1 1 1 1 1 4 6 6 6 6 6 7 7 7 7 8 8 8 7
4 6 6 6 6 5 5 6 5 5 3 4 3 2 3 2 2 2 2 1 1 1 2 1 1 1 1 1 2 5 6 7 7 7 7 8 8 8 8 8 9 8 8
4 5 6 6 5 5 5 5 5 4 4 5 4 2 2 2 2 2 2 1 1 1 1 1 1 1 1 1 2 5 5 7 7 8 9 9 9 9 9 9 9 8 8
5 6 6 6 6 6 5 5 4 4 4 4 3 3 2 1 2 2 3 3 1 1 1 2 1 1 1 1 2 5 3 7 8 8 9 9 8 8 8 9 8 8 8
5 6 7 6 6 5 6 5 4 4 4 3 3 3 2 2 2 1 2 2 3 2 3 2 1 1 2 1 4 3 2 6 8 8 8 8 8 8 8 9 8 8 8
5 6 6 6 6 5 5 5 4 4 4 3 2 3 2 1 2 2 2 1 2 2 3 2 2 2 2 2 4 3 3 7 8 8 8 8 8 8 8 9 8 8 9
6 7 6 6 6 6 5 5 5 5 4 3 3 3 2 2 2 2 2 1 1 1 2 2 1 1 2 2 3 2 3 3 4 8 9 9 9 9 9 9 9 9 9
6 6 6 6 6 6 6 6 5 5 4 4 3 3 3 2 2 2 2 2 2 2 2 3 2 2 2 3 3 3 3 3 3 7 9 9 9 9 10 10 9 9 9
5 5 5 6 6 5 5 5 5 4 4 4 4 4 4 3 3 2 2 2 2 1 1 2 3 2 2 2 2 3 3 3 4 6 8 8 9 10 11 10 10 9 9
6 5 5 5 5 5 5 5 4 4 3 3 3 4 4 4 4 4 3 3 2 2 1 2 2 2 2 2 2 3 3 3 4 4 5 7 9 10 11 11 10 10 10
5 5 5 4 4 4 5 5 5 4 4 3 3 3 3 4 5 4 3 3 3 2 2 2 3 2 2 2 3 2 4 4 4 3 3 4 4 4 5 8 9 10 11
5 5 5 5 4 3 5 6 5 4 4 4 3 3 2 3 4 5 5 5 5 4 4 3 3 4 4 4 3 3 3 3 4 2 2 4 3 4 4 4 9 12 11
5 5 4 4 4 4 5 5 5 4 4 4 4 3 2 3 3 2 3 5 5 7 7 5 5 6 5 4 4 4 4 4 5 3 2 5 3 4 4 6 12 12 12
4 4 4 4 3 3 4 5 5 3 3 3 3 4 4 3 3 3 2 2 3 3 5 4 5 6 5 5 5 5 5 4 4 3 3 4 4 4 5 5 11 12 11
3 3 3 4 4 3 4 4 4 3 2 2 2 3 4 4 5 4 3 3 3 3 4 6 7 7 9 9 6 2 2 3 5 4 2 3 3 4 4 4 6 10 10
3 3 2 2 3 3 4 4 3 3 3 2 2 2 4 4 5 5 3 3 4 4 3 3 4 5 5 5 7 4 4 4 4 4 2 2 2 2 4 3 3 3 5
Wind_Direction
147 140 134 130 131 127 126 122 115 110 105 99 98 97 89 89 89 81 62 69 79 90 101 104 101 105 105 101 104 100 94 90 87 83 80 80 71 66 59 52 46 42 37
148 146 145 137 136 140 134 128 124 118 112 106 96 92 91 84 80 81 68 60 63 67 80 94 95 91 91 90 87 97 95 90 83 76 71 71 68 64 57 51 44 36 28
148 150 145 148 140 141 133 121 113 110 107 100 92 89 87 79 80 80 73 61 53 50 58 74 82 79 75 81 83 83 87 89 86 78 68 59 58 56 49 43 35 29 23
151 148 146 150 141 133 135 130 128 118 108 101 90 80 80 80 73 78 74 66 57 47 45 53 60 64 66 73 79 76 80 80 79 75 61 49 41 37 33 26 20 15 12
157 155 153 145 140 130 134 132 125 125 116 103 93 76 65 68 65 72 74 67 60 54 45 43 46 46 50 64 73 69 71 76 66 62 43 26 19 7 3 360 355 355 359
158 156 149 145 140 132 131 130 123 110 114 115 100 79 62 56 58 61 65 64 57 50 46 42 37 34 38 44 58 58 57 56 40 32 20 4 352 346 332 331 330 329 335
154 155 153 146 141 137 143 135 124 114 104 113 100 79 49 52 55 49 52 60 52 46 46 41 35 33 22 33 42 46 46 38 21 5 353 345 334 334 331 325 317 318 317
155 155 153 150 141 133 136 133 129 126 118 107 116 116 83 19 14 30 40 61 50 41 40 32 30 29 22 13 18 31 31 24 7 355 350 337 332 324 318 316 311 306 306
157 153 153 150 144 144 151 147 141 138 139 116 104 133 144 180 262 356 17 41 45 40 20 17 23 13 14 20 16 19 18 6 354 347 342 332 325 320 313 310 313 307 303
155 154 152 153 149 148 154 153 144 140 142 145 112 72 112 138 144 160 330 10 26 17 359 7 4 3 14 21 18 17 8 358 350 341 330 322 317 314 313 312 310 307 301
153 155 150 155 152 151 156 152 146 137 139 145 142 129 95 79 101 145 205 302 346 329 323 329 330 338 3 8 5 1 359 352 343 336 330 326 320 314 312 310 310 305 305
152 154 150 154 152 153 159 157 149 144 141 133 133 133 139 141 154 147 167 198 262 288 306 310 295 296 321 336 349 354 353 349 338 330 326 327 326 324 320 317 313 310 308
156 161 154 153 153 155 157 149 145 147 147 144 144 146 141 149 149 149 147 160 197 283 312 309 267 281 299 324 327 339 341 339 336 327 319 319 322 323 320 318 313 310 310
158 155 154 151 153 154 154 149 145 145 143 142 143 144 138 153 150 152 152 148 155 279 261 266 299 271 292 305 317 329 325 328 326 322 319 320 320 319 317 316 314 313 311
145 148 151 148 149 151 152 146 142 141 141 146 150 148 146 156 147 147 145 154 160 213 249 238 252 292 295 293 308 315 311 318 319 319 320 320 319 316 315 315 310 308 308
143 147 146 148 149 147 143 142 144 144 141 148 147 145 145 150 149 147 155 166 172 185 234 231 237 265 284 290 307 315 305 317 317 317 318 315 311 309 309 309 307 305 303
152 152 151 151 150 150 150 152 155 153 155 155 156 162 172 163 161 158 154 162 178 177 237 271 262 277 272 279 301 299 297 297 301 314 314 310 308 308 308 306 301 301 301
154 153 152 155 156 158 159 160 161 162 167 173 177 171 180 167 167 169 170 183 197 200 209 264 276 267 263 271 281 290 298 300 293 305 306 306 305 305 306 303 301 299 299
148 149 153 158 161 161 159 163 164 167 176 185 184 183 187 172 184 186 184 191 200 213 205 242 275 275 278 285 291 290 288 289 293 298 301 301 301 301 301 299 301 300 296
151 154 158 161 162 159 162 164 164 168 177 190 190 190 191 188 193 191 198 199 192 191 200 232 267 280 278 281 274 284 298 293 293 298 293 297 298 300 300 299 300 297 290
156 156 154 157 158 161 169 167 168 173 178 188 191 194 199 208 212 208 207 200 190 195 208 234 259 274 273 273 265 264 280 294 289 273 282 290 291 288 294 293 295 291 286
155 151 157 162 165 174 176 175 171 175 179 185 192 199 207 214 221 231 239 235 221 211 216 227 248 253 263 257 260 263 273 289 291 265 268 283 272 277 280 279 291 293 286
157 156 161 163 174 183 181 184 188 175 178 189 193 194 211 220 233 212 238 249 247 246 240 234 241 249 255 249 249 263 258 261 267 269 270 278 269 271 277 286 295 294 289
160 164 168 172 175 188 190 193 194 171 177 197 201 200 203 211 214 209 207 229 244 250 250 243 237 251 253 248 239 243 250 266 272 264 228 266 275 274 286 286 288 288 292
157 167 169 172 178 195 194 187 171 160 175 204 213 207 206 207 222 229 210 219 255 267 274 263 261 267 268 268 260 245 246 266 279 271 220 240 272 289 287 280 284 288 293
157 155 155 174 179 190 193 183 176 163 180 201 207 215 229 228 235 239 219 210 242 259 256 276 280 283 278 269 264 241 226 247 268 271 227 220 264 296 296 275 278 290 291